QPF
0.00 0.00 0.00 0.00 0.01 0.01 0.01 0.01 0.01 0.01 0.01 0.02 0.03 0.03 0.02 0.03 0.03 0.03 0.03 0.03 0.03 0.03 0.05 0.04 0.04 0.05 0.05 0.03 0.03 0.04 0.03 0.03 0.01 0.01 0.01 0.01 0.01 0.01 0.00 0.00 0.01 0.01 0.02
0.00 0.00 0.00 0.00 0.01 0.01 0.01 0.01 0.01 0.01 0.01 0.01 0.02 0.03 0.03 0.03 0.04 0.04 0.04 0.03 0.03 0.04 0.05 0.06 0.05 0.06 0.07 0.05 0.05 0.05 0.04 0.02 0.01 0.01 0.01 0.01 0.01 0.01 0.00 0.00 0.01 0.01 0.02
0.00 0.00 0.00 0.00 0.01 0.01 0.01 0.01 0.01 0.01 0.01 0.01 0.02 0.03 0.04 0.04 0.04 0.05 0.05 0.04 0.03 0.04 0.04 0.05 0.06 0.07 0.10 0.10 0.09 0.07 0.04 0.04 0.02 0.01 0.00 0.00 0.01 0.01 0.01 0.01 0.01 0.03 0.02
0.00 0.00 0.00 0.00 0.00 0.01 0.02 0.01 0.01 0.02 0.02 0.02 0.02 0.03 0.04 0.05 0.05 0.05 0.04 0.04 0.05 0.04 0.03 0.04 0.06 0.06 0.08 0.12 0.13 0.08 0.04 0.03 0.02 0.01 0.00 0.00 0.01 0.01 0.01 0.01 0.01 0.02 0.02
0.00 0.00 0.00 0.00 0.00 0.00 0.01 0.01 0.01 0.02 0.03 0.03 0.03 0.03 0.05 0.06 0.08 0.07 0.05 0.04 0.05 0.04 0.04 0.05 0.05 0.06 0.05 0.08 0.09 0.06 0.04 0.04 0.02 0.01 0.00 0.01 0.01 0.02 0.01 0.01 0.02 0.02 0.01
0.00 0.00 0.00 0.00 0.00 0.00 0.01 0.01 0.01 0.02 0.02 0.03 0.04 0.04 0.05 0.07 0.08 0.08 0.07 0.06 0.04 0.04 0.04 0.05 0.05 0.06 0.05 0.04 0.05 0.05 0.05 0.04 0.02 0.01 0.01 0.01 0.01 0.01 0.01 0.01 0.02 0.02 0.01
0.00 0.00 0.00 0.00 0.00 0.00 0.00 0.01 0.01 0.01 0.02 0.03 0.04 0.04 0.06 0.07 0.07 0.07 0.08 0.07 0.05 0.04 0.05 0.05 0.06 0.06 0.06 0.05 0.04 0.04 0.05 0.04 0.02 0.01 0.01 0.00 0.01 0.01 0.02 0.02 0.02 0.02 0.01
0.00 0.00 0.00 0.00 0.00 0.00 0.00 0.00 0.00 0.01 0.01 0.02 0.03 0.04 0.06 0.08 0.08 0.08 0.08 0.07 0.07 0.06 0.05 0.05 0.06 0.06 0.06 0.06 0.05 0.04 0.04 0.03 0.03 0.01 0.01 0.01 0.01 0.02 0.03 0.03 0.03 0.02 0.02
0.00 0.00 0.00 0.00 0.00 0.00 0.00 0.00 0.00 0.00 0.01 0.02 0.03 0.04 0.05 0.07 0.09 0.09 0.08 0.06 0.06 0.06 0.06 0.05 0.06 0.06 0.06 0.06 0.06 0.05 0.04 0.03 0.02 0.01 0.01 0.01 0.01 0.02 0.03 0.03 0.04 0.03 0.03
0.00 0.00 0.00 0.00 0.00 0.00 0.00 0.00 0.00 0.00 0.00 0.01 0.02 0.03 0.05 0.06 0.08 0.09 0.09 0.06 0.05 0.05 0.04 0.05 0.06 0.05 0.04 0.06 0.06 0.05 0.03 0.02 0.02 0.01 0.01 0.01 0.01 0.02 0.03 0.03 0.04 0.05 0.04
0.00 0.00 0.01 0.01 0.01 0.00 0.00 0.00 0.00 0.00 0.00 0.01 0.01 0.03 0.05 0.05 0.07 0.08 0.09 0.08 0.05 0.05 0.04 0.04 0.05 0.06 0.05 0.05 0.06 0.05 0.03 0.02 0.01 0.01 0.01 0.01 0.01 0.02 0.03 0.03 0.04 0.04 0.04
0.00 0.01 0.01 0.01 0.01 0.01 0.01 0.00 0.00 0.00 0.00 0.01 0.01 0.03 0.05 0.06 0.08 0.09 0.08 0.08 0.07 0.06 0.06 0.05 0.05 0.07 0.06 0.04 0.04 0.03 0.02 0.02 0.02 0.02 0.01 0.01 0.01 0.02 0.03 0.04 0.04 0.04 0.04
0.00 0.01 0.01 0.02 0.01 0.02 0.02 0.01 0.00 0.00 0.00 0.01 0.01 0.03 0.05 0.07 0.10 0.11 0.10 0.09 0.09 0.06 0.05 0.06 0.08 0.08 0.05 0.04 0.03 0.03 0.02 0.04 0.04 0.03 0.03 0.03 0.02 0.03 0.04 0.05 0.05 0.04 0.04
0.00 0.00 0.01 0.01 0.01 0.02 0.02 0.01 0.00 0.00 0.00 0.00 0.01 0.02 0.05 0.07 0.08 0.09 0.09 0.08 0.08 0.05 0.04 0.05 0.07 0.07 0.06 0.05 0.04 0.04 0.03 0.03 0.04 0.04 0.04 0.04 0.04 0.04 0.05 0.06 0.06 0.05 0.04
0.00 0.00 0.00 0.01 0.01 0.02 0.03 0.02 0.00 0.00 0.00 0.00 0.01 0.02 0.05 0.07 0.08 0.07 0.07 0.07 0.07 0.06 0.06 0.06 0.07 0.06 0.05 0.05 0.05 0.05 0.04 0.04 0.03 0.04 0.04 0.04 0.05 0.05 0.06 0.08 0.08 0.06 0.05
0.00 0.00 0.00 0.01 0.02 0.03 0.03 0.02 0.01 0.00 0.00 0.01 0.01 0.02 0.05 0.09 0.08 0.07 0.06 0.06 0.05 0.05 0.06 0.07 0.07 0.06 0.05 0.05 0.05 0.05 0.05 0.04 0.04 0.04 0.05 0.04 0.04 0.04 0.06 0.07 0.09 0.08 0.08
0.00 0.00 0.00 0.00 0.01 0.03 0.03 0.02 0.01 0.00 0.00 0.01 0.01 0.02 0.03 0.09 0.11 0.09 0.07 0.05 0.05 0.05 0.06 0.06 0.08 0.07 0.07 0.05 0.05 0.05 0.05 0.04 0.04 0.04 0.04 0.04 0.04 0.04 0.05 0.06 0.08 0.09 0.09
0.00 0.00 0.00 0.00 0.01 0.03 0.04 0.03 0.02 0.01 0.01 0.01 0.01 0.02 0.03 0.07 0.11 0.11 0.09 0.06 0.05 0.05 0.05 0.05 0.08 0.10 0.09 0.06 0.05 0.04 0.04 0.04 0.03 0.03 0.03 0.03 0.03 0.04 0.05 0.06 0.07 0.09 0.10
0.00 0.00 0.00 0.00 0.01 0.02 0.04 0.04 0.03 0.02 0.01 0.01 0.02 0.02 0.03 0.06 0.10 0.11 0.11 0.08 0.05 0.04 0.04 0.04 0.05 0.08 0.10 0.09 0.06 0.05 0.05 0.05 0.05 0.04 0.03 0.03 0.02 0.03 0.04 0.05 0.06 0.07 0.10
0.00 0.00 0.00 0.00 0.01 0.02 0.03 0.05 0.05 0.03 0.02 0.02 0.02 0.02 0.03 0.05 0.09 0.10 0.11 0.10 0.07 0.05 0.04 0.03 0.04 0.06 0.07 0.09 0.09 0.08 0.06 0.06 0.07 0.06 0.04 0.03 0.02 0.02 0.03 0.04 0.05 0.05 0.07
0.00 0.00 0.00 0.00 0.01 0.02 0.03 0.06 0.07 0.05 0.04 0.03 0.02 0.03 0.04 0.05 0.10 0.10 0.10 0.10 0.09 0.06 0.04 0.04 0.04 0.06 0.08 0.09 0.11 0.14 0.13 0.09 0.08 0.08 0.07 0.05 0.03 0.02 0.03 0.03 0.03 0.04 0.05
0.00 0.00 0.00 0.00 0.01 0.02 0.03 0.07 0.09 0.08 0.06 0.05 0.05 0.04 0.04 0.06 0.10 0.13 0.11 0.09 0.09 0.08 0.06 0.05 0.05 0.06 0.10 0.13 0.12 0.13 0.16 0.16 0.12 0.08 0.08 0.07 0.06 0.04 0.03 0.03 0.03 0.03 0.04
0.01 0.00 0.01 0.01 0.01 0.03 0.03 0.05 0.06 0.06 0.06 0.06 0.07 0.04 0.05 0.06 0.10 0.14 0.15 0.13 0.10 0.09 0.07 0.06 0.05 0.06 0.09 0.14 0.13 0.13 0.12 0.12 0.11 0.09 0.06 0.06 0.06 0.05 0.04 0.04 0.04 0.03 0.04
0.02 0.00 0.00 0.01 0.02 0.03 0.03 0.03 0.03 0.05 0.05 0.04 0.03 0.03 0.03 0.05 0.07 0.11 0.14 0.15 0.14 0.11 0.09 0.08 0.06 0.05 0.06 0.11 0.13 0.12 0.10 0.08 0.07 0.08 0.08 0.06 0.06 0.06 0.05 0.05 0.05 0.04 0.04
0.03 0.01 0.00 0.01 0.02 0.02 0.02 0.02 0.03 0.06 0.06 0.04 0.03 0.03 0.03 0.03 0.06 0.08 0.10 0.13 0.14 0.12 0.10 0.08 0.07 0.06 0.05 0.07 0.10 0.11 0.11 0.09 0.07 0.06 0.07 0.07 0.07 0.06 0.05 0.04 0.05 0.05 0.05
0.04 0.04 0.02 0.01 0.02 0.02 0.02 0.02 0.03 0.05 0.07 0.05 0.03 0.02 0.02 0.03 0.05 0.07 0.08 0.09 0.08 0.08 0.07 0.05 0.03 0.04 0.06 0.06 0.07 0.08 0.09 0.09 0.07 0.06 0.07 0.07 0.07 0.07 0.05 0.04 0.05 0.05 0.05
MSLP
1015.22 1014.74 1014.16 1013.60 1013.12 1012.73 1012.44 1012.20 1011.96 1011.67 1011.33 1010.93 1010.52 1010.14 1009.82 1009.60 1009.47 1009.42 1009.42 1009.43 1009.45 1009.45 1009.45 1009.47 1009.52 1009.62 1009.77 1009.95 1010.14 1010.33 1010.48 1010.61 1010.72 1010.82 1010.93 1011.08 1011.27 1011.49 1011.73 1011.98 1012.20 1012.40 1012.56
1015.13 1014.66 1014.14 1013.65 1013.27 1012.99 1012.79 1012.62 1012.43 1012.16 1011.82 1011.40 1010.97 1010.56 1010.21 1009.96 1009.80 1009.72 1009.69 1009.67 1009.64 1009.61 1009.57 1009.55 1009.56 1009.62 1009.72 1009.85 1010.00 1010.14 1010.25 1010.36 1010.46 1010.56 1010.70 1010.88 1011.11 1011.36 1011.63 1011.90 1012.14 1012.34 1012.51
1015.01 1014.55 1014.08 1013.68 1013.39 1013.21 1013.11 1013.02 1012.88 1012.66 1012.33 1011.93 1011.49 1011.07 1010.71 1010.43 1010.23 1010.10 1010.01 1009.92 1009.83 1009.73 1009.64 1009.56 1009.53 1009.54 1009.60 1009.69 1009.80 1009.90 1010.00 1010.10 1010.20 1010.33 1010.50 1010.71 1010.97 1011.25 1011.53 1011.80 1012.03 1012.23 1012.39
1014.89 1014.45 1014.04 1013.72 1013.52 1013.44 1013.42 1013.39 1013.31 1013.12 1012.83 1012.46 1012.04 1011.63 1011.26 1010.95 1010.71 1010.52 1010.35 1010.18 1010.00 1009.82 1009.65 1009.51 1009.42 1009.39 1009.41 1009.47 1009.56 1009.65 1009.75 1009.85 1009.98 1010.14 1010.34 1010.59 1010.86 1011.16 1011.44 1011.70 1011.91 1012.08 1012.23
1014.81 1014.41 1014.06 1013.82 1013.70 1013.69 1013.72 1013.74 1013.69 1013.54 1013.28 1012.93 1012.54 1012.15 1011.79 1011.47 1011.19 1010.94 1010.69 1010.43 1010.15 1009.88 1009.63 1009.42 1009.28 1009.21 1009.20 1009.24 1009.31 1009.41 1009.51 1009.64 1009.80 1009.99 1010.23 1010.50 1010.79 1011.09 1011.36 1011.59 1011.78 1011.93 1012.05
1014.80 1014.45 1014.17 1014.00 1013.95 1013.97 1014.03 1014.06 1014.01 1013.87 1013.62 1013.30 1012.94 1012.58 1012.24 1011.93 1011.63 1011.32 1011.00 1010.66 1010.30 1009.94 1009.61 1009.34 1009.15 1009.03 1009.00 1009.02 1009.08 1009.18 1009.30 1009.45 1009.64 1009.86 1010.12 1010.41 1010.71 1011.00 1011.26 1011.47 1011.63 1011.75 1011.86
1014.87 1014.58 1014.37 1014.26 1014.25 1014.29 1014.34 1014.35 1014.27 1014.10 1013.85 1013.54 1013.21 1012.88 1012.58 1012.28 1011.97 1011.65 1011.29 1010.88 1010.46 1010.03 1009.64 1009.32 1009.07 1008.92 1008.85 1008.85 1008.89 1008.98 1009.10 1009.26 1009.45 1009.69 1009.97 1010.27 1010.57 1010.85 1011.09 1011.29 1011.44 1011.55 1011.66
1015.01 1014.79 1014.64 1014.59 1014.59 1014.62 1014.63 1014.58 1014.44 1014.23 1013.95 1013.64 1013.34 1013.05 1012.78 1012.51 1012.23 1011.91 1011.53 1011.10 1010.64 1010.17 1009.74 1009.38 1009.09 1008.89 1008.78 1008.74 1008.74 1008.80 1008.89 1009.02 1009.20 1009.44 1009.70 1010.00 1010.29 1010.57 1010.81 1011.01 1011.16 1011.29 1011.42
1015.19 1015.03 1014.95 1014.92 1014.93 1014.92 1014.87 1014.74 1014.53 1014.26 1013.95 1013.63 1013.34 1013.08 1012.85 1012.63 1012.39 1012.09 1011.73 1011.30 1010.84 1010.36 1009.92 1009.52 1009.20 1008.96 1008.80 1008.69 1008.63 1008.62 1008.65 1008.73 1008.86 1009.05 1009.30 1009.57 1009.86 1010.13 1010.38 1010.60 1010.79 1010.96 1011.14
1015.38 1015.27 1015.22 1015.21 1015.20 1015.15 1015.03 1014.82 1014.54 1014.20 1013.85 1013.53 1013.25 1013.02 1012.84 1012.66 1012.45 1012.19 1011.86 1011.47 1011.03 1010.57 1010.13 1009.73 1009.38 1009.10 1008.88 1008.69 1008.55 1008.44 1008.38 1008.37 1008.43 1008.56 1008.75 1009.00 1009.27 1009.55 1009.82 1010.08 1010.31 1010.54 1010.79
1015.55 1015.47 1015.43 1015.41 1015.36 1015.26 1015.07 1014.80 1014.45 1014.07 1013.69 1013.36 1013.10 1012.89 1012.74 1012.60 1012.43 1012.21 1011.92 1011.56 1011.15 1010.73 1010.31 1009.92 1009.58 1009.26 1008.98 1008.72 1008.48 1008.26 1008.09 1007.97 1007.93 1007.99 1008.12 1008.33 1008.59 1008.88 1009.17 1009.47 1009.76 1010.06 1010.37
1015.68 1015.60 1015.54 1015.49 1015.39 1015.23 1014.98 1014.65 1014.26 1013.85 1013.46 1013.14 1012.88 1012.70 1012.56 1012.44 1012.30 1012.10 1011.84 1011.52 1011.16 1010.78 1010.41 1010.05 1009.71 1009.38 1009.06 1008.73 1008.40 1008.08 1007.80 1007.57 1007.43 1007.40 1007.47 1007.64 1007.88 1008.17 1008.49 1008.83 1009.18 1009.53 1009.90
1015.77 1015.65 1015.55 1015.43 1015.27 1015.05 1014.74 1014.37 1013.96 1013.54 1013.16 1012.84 1012.60 1012.42 1012.29 1012.17 1012.02 1011.84 1011.59 1011.30 1010.99 1010.66 1010.33 1010.02 1009.71 1009.40 1009.06 1008.70 1008.31 1007.91 1007.53 1007.21 1006.98 1006.86 1006.87 1006.99 1007.21 1007.51 1007.85 1008.22 1008.60 1008.99 1009.39
1015.83 1015.65 1015.46 1015.26 1015.01 1014.71 1014.35 1013.95 1013.53 1013.12 1012.75 1012.45 1012.21 1012.04 1011.89 1011.75 1011.59 1011.38 1011.14 1010.87 1010.59 1010.31 1010.05 1009.80 1009.54 1009.27 1008.95 1008.59 1008.17 1007.72 1007.29 1006.89 1006.59 1006.40 1006.36 1006.44 1006.64 1006.93 1007.27 1007.65 1008.04 1008.45 1008.86
1015.87 1015.58 1015.29 1014.97 1014.63 1014.24 1013.83 1013.39 1012.96 1012.56 1012.20 1011.91 1011.68 1011.49 1011.33 1011.15 1010.96 1010.73 1010.48 1010.22 1009.97 1009.74 1009.54 1009.36 1009.18 1008.98 1008.71 1008.38 1007.98 1007.52 1007.06 1006.62 1006.27 1006.04 1005.94 1005.98 1006.15 1006.42 1006.76 1007.13 1007.52 1007.91 1008.31
1015.86 1015.47 1015.05 1014.60 1014.14 1013.66 1013.18 1012.70 1012.25 1011.85 1011.51 1011.22 1010.98 1010.77 1010.58 1010.37 1010.14 1009.89 1009.63 1009.37 1009.15 1008.98 1008.84 1008.74 1008.65 1008.53 1008.34 1008.07 1007.72 1007.29 1006.83 1006.38 1006.00 1005.72 1005.58 1005.58 1005.72 1005.95 1006.26 1006.62 1006.98 1007.35 1007.72
1015.81 1015.29 1014.73 1014.16 1013.57 1012.99 1012.43 1011.90 1011.42 1011.01 1010.65 1010.36 1010.11 1009.88 1009.65 1009.42 1009.17 1008.90 1008.64 1008.40 1008.21 1008.09 1008.02 1008.00 1008.00 1007.97 1007.87 1007.68 1007.39 1007.01 1006.57 1006.12 1005.72 1005.41 1005.22 1005.17 1005.26 1005.45 1005.73 1006.05 1006.40 1006.74 1007.08
1015.67 1015.04 1014.35 1013.64 1012.94 1012.25 1011.61 1011.02 1010.50 1010.05 1009.67 1009.36 1009.08 1008.83 1008.59 1008.35 1008.09 1007.83 1007.58 1007.38 1007.24 1007.16 1007.16 1007.22 1007.29 1007.35 1007.33 1007.22 1007.00 1006.67 1006.26 1005.82 1005.39 1005.04 1004.80 1004.69 1004.72 1004.87 1005.10 1005.40 1005.72 1006.05 1006.38
1015.43 1014.68 1013.87 1013.05 1012.24 1011.47 1010.75 1010.10 1009.52 1009.03 1008.61 1008.26 1007.96 1007.69 1007.44 1007.20 1006.96 1006.74 1006.53 1006.38 1006.28 1006.27 1006.33 1006.44 1006.58 1006.71 1006.77 1006.73 1006.57 1006.28 1005.90 1005.46 1005.01 1004.61 1004.30 1004.12 1004.08 1004.16 1004.36 1004.62 1004.94 1005.28 1005.62
1015.05 1014.20 1013.30 1012.39 1011.50 1010.65 1009.87 1009.16 1008.53 1007.98 1007.51 1007.12 1006.79 1006.51 1006.26 1006.04 1005.84 1005.67 1005.52 1005.42 1005.39 1005.43 1005.53 1005.70 1005.88 1006.06 1006.17 1006.19 1006.08 1005.84 1005.48 1005.04 1004.56 1004.11 1003.73 1003.47 1003.35 1003.37 1003.51 1003.76 1004.07 1004.43 1004.81
1014.53 1013.59 1012.62 1011.64 1010.70 1009.81 1008.98 1008.23 1007.55 1006.95 1006.43 1005.99 1005.63 1005.33 1005.09 1004.90 1004.75 1004.63 1004.55 1004.52 1004.54 1004.62 1004.77 1004.96 1005.18 1005.39 1005.55 1005.61 1005.55 1005.35 1005.02 1004.59 1004.09 1003.59 1003.14 1002.80 1002.59 1002.54 1002.63 1002.85 1003.17 1003.56 1003.99
1013.89 1012.87 1011.84 1010.83 1009.86 1008.95 1008.11 1007.32 1006.61 1005.96 1005.39 1004.90 1004.50 1004.19 1003.95 1003.78 1003.67 1003.61 1003.59 1003.62 1003.68 1003.80 1003.96 1004.17 1004.41 1004.64 1004.84 1004.96 1004.95 1004.81 1004.53 1004.12 1003.62 1003.09 1002.59 1002.17 1001.89 1001.76 1001.79 1001.97 1002.29 1002.70 1003.17
1013.17 1012.08 1011.00 1009.97 1009.00 1008.09 1007.25 1006.45 1005.71 1005.02 1004.41 1003.87 1003.42 1003.08 1002.83 1002.67 1002.59 1002.56 1002.58 1002.64 1002.73 1002.86 1003.03 1003.25 1003.50 1003.76 1004.00 1004.18 1004.26 1004.20 1004.00 1003.66 1003.20 1002.67 1002.14 1001.67 1001.31 1001.11 1001.07 1001.20 1001.49 1001.90 1002.39
1012.41 1011.25 1010.14 1009.10 1008.13 1007.24 1006.40 1005.61 1004.85 1004.13 1003.47 1002.88 1002.39 1002.00 1001.72 1001.54 1001.46 1001.43 1001.46 1001.52 1001.61 1001.74 1001.90 1002.12 1002.38 1002.68 1002.98 1003.25 1003.44 1003.50 1003.42 1003.19 1002.82 1002.34 1001.82 1001.33 1000.91 1000.64 1000.52 1000.59 1000.81 1001.18 1001.66
1011.69 1010.46 1009.30 1008.24 1007.28 1006.39 1005.57 1004.77 1004.00 1003.26 1002.56 1001.92 1001.37 1000.92 1000.59 1000.37 1000.25 1000.20 1000.20 1000.24 1000.31 1000.41 1000.56 1000.77 1001.05 1001.39 1001.77 1002.15 1002.48 1002.71 1002.79 1002.71 1002.47 1002.09 1001.62 1001.13 1000.69 1000.35 1000.16 1000.13 1000.27 1000.57 1000.99
1011.04 1009.74 1008.53 1007.44 1006.46 1005.57 1004.74 1003.94 1003.16 1002.39 1001.65 1000.96 1000.35 999.84 999.45 999.17 998.99 998.88 998.84 998.83 998.86 998.92 999.05 999.26 999.56 999.96 1000.43 1000.93 1001.41 1001.82 1002.09 1002.20 1002.12 1001.87 1001.49 1001.05 1000.60 1000.21 999.94 999.81 999.86 1000.05 1000.39
Thickness
5725 5730 5733 5736 5738 5741 5743 5745 5746 5748 5749 5751 5752 5753 5754 5755 5755 5755 5756 5756 5756 5755 5755 5755 5754 5753 5753 5752 5751 5750 5749 5747 5746 5745 5744 5743 5742 5741 5739 5738 5737 5736 5734
5724 5727 5730 5732 5734 5736 5738 5740 5742 5743 5744 5746 5747 5748 5749 5750 5751 5751 5752 5752 5752 5752 5752 5751 5751 5750 5750 5749 5748 5747 5746 5746 5744 5743 5742 5741 5739 5738 5737 5735 5734 5733 5732
5721 5723 5726 5727 5729 5731 5733 5735 5736 5738 5739 5741 5742 5744 5745 5745 5746 5747 5747 5748 5748 5748 5748 5748 5747 5747 5746 5745 5745 5744 5744 5743 5742 5740 5739 5738 5737 5736 5734 5733 5731 5730 5729
5718 5719 5721 5723 5724 5725 5727 5729 5731 5733 5734 5736 5737 5739 5740 5741 5741 5742 5743 5743 5743 5743 5744 5743 5743 5743 5742 5742 5741 5741 5740 5740 5738 5737 5736 5735 5734 5733 5732 5730 5729 5727 5726
5712 5714 5715 5717 5718 5720 5721 5723 5725 5727 5729 5730 5732 5733 5735 5736 5737 5737 5738 5739 5739 5739 5739 5739 5739 5739 5739 5738 5738 5737 5737 5736 5735 5734 5733 5731 5730 5729 5729 5727 5726 5724 5723
5706 5708 5710 5711 5712 5714 5715 5717 5719 5721 5723 5724 5726 5728 5729 5730 5731 5732 5733 5733 5734 5735 5735 5735 5735 5735 5735 5734 5734 5734 5733 5732 5731 5730 5729 5728 5727 5726 5725 5724 5722 5720 5719
5700 5702 5703 5705 5706 5707 5709 5710 5712 5714 5716 5718 5720 5721 5723 5724 5725 5727 5727 5728 5729 5730 5730 5731 5731 5731 5730 5730 5730 5730 5729 5728 5727 5726 5725 5725 5724 5723 5722 5721 5719 5717 5715
5695 5695 5697 5698 5699 5700 5701 5703 5705 5706 5709 5711 5713 5715 5716 5718 5719 5720 5721 5722 5723 5724 5725 5726 5726 5726 5726 5725 5725 5725 5725 5723 5723 5722 5721 5721 5720 5719 5718 5717 5716 5714 5712
5688 5689 5689 5690 5692 5693 5694 5696 5697 5699 5701 5703 5705 5707 5709 5710 5712 5713 5714 5715 5717 5718 5718 5719 5720 5720 5720 5720 5720 5720 5720 5719 5718 5718 5717 5717 5716 5716 5715 5714 5712 5710 5708
5680 5681 5682 5683 5684 5685 5687 5688 5689 5690 5692 5694 5696 5698 5700 5702 5703 5705 5706 5708 5709 5710 5711 5712 5713 5714 5715 5715 5715 5714 5714 5713 5713 5713 5712 5712 5712 5712 5712 5710 5708 5706 5704
5671 5672 5674 5675 5676 5677 5678 5679 5680 5682 5683 5685 5687 5689 5691 5693 5695 5696 5698 5700 5701 5702 5704 5705 5706 5707 5708 5708 5708 5708 5708 5708 5707 5707 5707 5707 5707 5708 5707 5706 5705 5703 5701
5662 5664 5665 5666 5668 5669 5669 5670 5671 5673 5674 5676 5677 5679 5681 5683 5685 5687 5689 5690 5692 5693 5695 5696 5697 5698 5699 5700 5701 5701 5701 5701 5701 5701 5702 5702 5703 5703 5703 5702 5701 5699 5697
5655 5656 5657 5658 5659 5660 5661 5661 5662 5663 5664 5666 5667 5669 5671 5673 5675 5677 5678 5680 5682 5683 5685 5686 5687 5689 5690 5691 5693 5693 5694 5694 5695 5695 5697 5697 5698 5698 5698 5698 5697 5695 5693
5647 5648 5649 5650 5650 5651 5652 5652 5652 5653 5654 5656 5657 5659 5661 5663 5664 5666 5668 5669 5671 5672 5674 5676 5677 5679 5680 5682 5684 5685 5686 5687 5688 5689 5691 5691 5692 5692 5693 5693 5692 5691 5689
5640 5640 5640 5641 5641 5642 5642 5642 5643 5643 5644 5646 5647 5648 5650 5652 5653 5655 5657 5659 5660 5662 5663 5665 5666 5669 5670 5672 5674 5676 5678 5679 5681 5682 5684 5685 5686 5686 5687 5687 5687 5686 5685
5632 5632 5632 5632 5632 5632 5632 5632 5632 5633 5634 5635 5636 5638 5639 5641 5643 5645 5647 5648 5650 5651 5652 5654 5655 5658 5660 5662 5664 5666 5669 5671 5672 5674 5676 5677 5678 5679 5680 5681 5681 5681 5680
5624 5623 5622 5622 5622 5621 5621 5621 5622 5622 5622 5623 5625 5626 5628 5630 5632 5633 5636 5638 5639 5640 5641 5642 5644 5646 5649 5651 5653 5655 5658 5661 5663 5665 5667 5669 5670 5671 5673 5674 5675 5675 5675
5616 5614 5614 5613 5612 5611 5611 5611 5611 5611 5611 5611 5613 5614 5616 5618 5620 5622 5624 5626 5627 5627 5628 5629 5631 5632 5635 5638 5640 5644 5647 5650 5653 5656 5658 5660 5661 5663 5665 5666 5667 5668 5668
5609 5606 5605 5603 5602 5601 5601 5601 5601 5600 5600 5600 5601 5602 5604 5606 5607 5609 5610 5613 5614 5614 5615 5616 5618 5618 5621 5624 5627 5631 5634 5638 5641 5645 5648 5650 5652 5654 5656 5657 5658 5659 5661
5601 5599 5597 5595 5592 5591 5590 5590 5589 5589 5588 5588 5589 5590 5591 5593 5595 5596 5597 5599 5600 5601 5601 5602 5603 5605 5606 5608 5612 5616 5619 5624 5628 5633 5637 5640 5642 5644 5646 5647 5648 5650 5652
5593 5590 5588 5586 5583 5581 5579 5579 5578 5578 5579 5579 5579 5580 5580 5581 5582 5583 5584 5585 5586 5587 5588 5588 5589 5590 5592 5593 5594 5599 5605 5610 5615 5619 5623 5627 5630 5633 5635 5636 5638 5639 5642
5585 5583 5580 5578 5576 5574 5572 5571 5571 5570 5570 5570 5570 5570 5570 5570 5570 5571 5571 5572 5573 5573 5574 5575 5575 5576 5578 5578 5578 5580 5586 5594 5602 5606 5609 5613 5617 5620 5622 5625 5627 5629 5632
5578 5576 5575 5571 5569 5568 5566 5565 5563 5561 5560 5560 5561 5561 5561 5560 5560 5560 5560 5560 5560 5560 5561 5563 5562 5562 5564 5564 5564 5564 5568 5577 5583 5591 5595 5599 5602 5605 5609 5612 5615 5617 5620
5572 5570 5567 5565 5563 5561 5560 5557 5555 5553 5552 5553 5552 5552 5552 5550 5550 5550 5550 5549 5549 5550 5551 5551 5551 5551 5551 5552 5551 5552 5556 5561 5564 5573 5580 5584 5588 5592 5596 5599 5602 5605 5608
5566 5564 5561 5559 5557 5555 5553 5550 5547 5546 5545 5545 5544 5543 5543 5542 5541 5541 5540 5540 5541 5541 5540 5540 5540 5540 5540 5541 5541 5541 5543 5547 5550 5553 5564 5570 5574 5580 5584 5587 5590 5593 5597
5560 5557 5555 5552 5550 5548 5546 5543 5540 5538 5538 5536 5535 5535 5534 5533 5533 5532 5532 5532 5532 5531 5531 5530 5530 5530 5531 5531 5531 5532 5534 5537 5540 5541 5548 5555 5561 5568 5572 5575 5579 5582 5586